Regional Weather Roundup
Issued by NWS

Home | Current Version | Previous Version | Graphics & Text | Print | Product List | Glossary On
Versions: 1 2 3 4 5 6 7 8 9 10 11 12 13 14 15 16 17 18 19 20 21 22 23 24 25 26 27 28 29 30 31 32 33 34 35 36 37 38 39 40 41 42 43 44 45 46 47 48 49 50
000
ASUS43 KOAX 281610
RWRNE

WEATHER ROUNDUP FOR NEBRASKA
NATIONAL WEATHER SERVICE OMAHA NE
1100 AM CDT MON JUL 28 2014

NOTES: SATELLITE DATA IS BEING USED TO AUGMENT CLOUD COVER ABOVE
       12000 FEET.
       "FAIR" INDICATES FEW OR NO CLOUDS BELOW 12,000 FEET WITH NO
       SIGNIFICANT WEATHER AND/OR OBSTRUCTIONS TO VISIBILITY.

  * THESE STATIONS DO NOT REPORT WEATHER SUCH AS RAIN...SNOW OR FOG.

NEZ001>004-019>022-054>056-281700-
NEBRASKA PANHANDLE

CITY           SKY/WX    TMP DP  RH WIND       PRES   REMARKS
SCOTTSBLUFF    SUNNY     70  54  56 E13       30.34F
ALLIANCE       PTSUNNY   76  52  43 SE10      30.36R
CHADRON        SUNNY     75  53  46 SE12      30.32F
KIMBALL        PTSUNNY   75  56  51 E7        30.36S
SIDNEY         SUNNY     75  53  46 SE13      30.36S
$$

NEZ057>060-069>072-079>082-281700-
SOUTHWEST NEBRASKA

CITY           SKY/WX    TMP DP  RH WIND       PRES   REMARKS
NORTH PLATTE   SUNNY     72  57  59 SE8       30.35S
IMPERIAL       MOSUNNY   74  56  53 SE18      30.34F
LEXINGTON      SUNNY     70  59  66 E5        30.36S
MCCOOK         MOSUNNY   74  58  57 SE13      30.34F
OGALLALA       SUNNY     73  56  54 SE13      30.34F
$$

NEZ005>010-023>029-035>040-094-281700-
NORTH CENTRAL NEBRASKA

CITY           SKY/WX    TMP DP  RH WIND       PRES   REMARKS
VALENTINE      MOSUNNY   70  54  56 VRB3      30.35S
AINSWORTH      SUNNY     67  54  62 N6        30.35F
BROKEN BOW     SUNNY     71  55  56 VRB3      30.35S
O`NEILL        MOSUNNY   68  51  54 N10       30.34S
ORD            SUNNY     70  54  56 NE8       30.33S
THEDFORD       PTSUNNY   71  56  59 E5        30.37S
$$

NEZ041-046>049-061>064-073>077-083>087-281700-
SOUTH CENTRAL NEBRASKA

CITY           SKY/WX    TMP DP  RH WIND       PRES   REMARKS
GRAND ISLAND   SUNNY     70  55  59 N6        30.34S
AURORA         MOSUNNY   70  57  63 N6        30.33S
HASTINGS       SUNNY     70  54  56 N7        30.34S
HEBRON         SUNNY     71  54  55 N7        30.32R
HOLDREGE       SUNNY     69  56  64 NE5       30.36S
KEARNEY *      SUNNY     70  55  60 N5        30.35S
YORK           PTSUNNY   68  57  68 N7        30.33R
$$

NEZ011>018-030>034-042>045-281700-
NORTHEAST NEBRASKA

CITY           SKY/WX    TMP DP  RH WIND       PRES   REMARKS
NORFOLK        MOSUNNY   69  52  54 N14       30.30F
ALBION         MOSUNNY   67  55  65 NE9       30.33R
BLAIR          PTSUNNY   69  55  62 N10       30.26F
COLUMBUS *     PTSUNNY   46 N/A N/A NW12      30.31S
FREMONT        PTSUNNY   70  55  58 NW9       30.29R
WAYNE          PTSUNNY   71  56  59 N13G18    30.29S
$$

NEZ050>053-065>068-078-088>093-281700-
SOUTHEAST NEBRASKA

CITY           SKY/WX    TMP DP  RH WIND       PRES   REMARKS
LINCOLN        MOSUNNY   74  54  49 N13       30.30R
OMAHA EPPLEY   PTSUNNY   70  57  63 N10       30.27S
BEATRICE       SUNNY     70  56  62 N15       30.30S
FALLS CITY     PTSUNNY   73  60  63 N9        30.25S
NEBRASKA CITY  CLOUDY    67  58  71 N6        30.27S
PLATTSMOUTH    CLOUDY    68  57  67 NW9       30.28R
$$

NEZ044-045-051>053-067-281700-
OMAHA AREA

CITY           SKY/WX    TMP DP  RH WIND       PRES   REMARKS
OMAHA EPPLEY   PTSUNNY   70  57  63 N10       30.27S
BLAIR          PTSUNNY   69  55  62 N10       30.26F
FREMONT        PTSUNNY   70  55  58 NW9       30.29R
MILLARD        CLOUDY    70  58  65 NW5       30.27S
OFFUTT AFB     MOSUNNY   70  60  72 NW12      30.26S
PLATTSMOUTH    CLOUDY    68  57  67 NW9       30.28R
WAHOO          CLOUDY    70  56  61 N7        30.29S
$$



USA.gov is the U.S. government's official web portal to all federal, state and local government web resources and services.